This is the latest recevied weather packets stored in our database for station/object KV9E. If no packets are shown the sender has not sent any weather packets the latest 10 day(s).
| Time | Temp. | Humidity | Pressure | Rain* | Wind** | Luminosity | Snow |
|---|---|---|---|---|---|---|---|
| 1788580710 | 23.89° C | 91% | 1015.5 hPa | 0 mm | - | 0 W/m² | - |
| 1788580406 | 23.89° C | 91% | 1015.6 hPa | 0 mm | - | 0 W/m² | - |
| 1788580102 | 23.89° C | 91% | 1015.5 hPa | 0 mm | - | 0 W/m² | - |
| 1788579798 | 24.44° C | 90% | 1015.6 hPa | 0 mm | - | 0 W/m² | - |
| 1788579496 | 24.44° C | 90% | 1015.6 hPa | 0 mm | - | 0 W/m² | - |
| 1788579192 | 24.44° C | 90% | 1015.7 hPa | 0 mm | - | 0 W/m² | - |
| 1788578891 | 25° C | 89% | 1015.6 hPa | 0 mm | - | 0 W/m² | - |
| 1788578587 | 25° C | 87% | 1015.9 hPa | 0 mm | - | 0 W/m² | - |
| 1788578282 | 25° C | 87% | 1015.8 hPa | 0 mm | - | 0 W/m² | - |
| 1788577978 | 25° C | 83% | 1015.9 hPa | 0 mm | - | 0 W/m² | - |
| 1788577672 | 24.44° C | 88% | 1015.8 hPa | 0 mm | - | 0 W/m² | - |
| 1788577368 | 24.44° C | 90% | 1015.9 hPa | 0 mm | - | 0 W/m² | - |
| 1788577062 | 24.44° C | 90% | 1016.2 hPa | 0 mm | - | 0 W/m² | - |
| 1788576758 | 24.44° C | 91% | 1015.9 hPa | 0 mm | - | 0 W/m² | - |
| 1788576454 | 24.44° C | 92% | 1016.1 hPa | 0 mm | - | 0 W/m² | - |
| 1788576150 | 25° C | 91% | 1016.1 hPa | 0 mm | - | 0 W/m² | - |
| 1788575849 | 25° C | 89% | 1016 hPa | 0 mm | - | 0 W/m² | - |
| 1788575545 | 25.56° C | 87% | 1016 hPa | 0 mm | - | 0 W/m² | - |
| 1788575243 | 25.56° C | 86% | 1015.8 hPa | 0 mm | - | 0 W/m² | - |
| 1788574939 | 25.56° C | 85% | 1015.8 hPa | 0 mm | - | 0 W/m² | - |
| 1788574633 | 25.56° C | 85% | 1016 hPa | 0 mm | - | 0 W/m² | - |
| 1788574329 | 25° C | 87% | 1016 hPa | 0 mm | - | 0 W/m² | - |
| 1788574023 | 25.56° C | 89% | 1016.1 hPa | 0 mm | - | 0 W/m² | - |
| 1788573718 | 25.56° C | 89% | 1016.1 hPa | 0 mm | - | 0 W/m² | - |
| 1788573417 | 25.56° C | 89% | 1016 hPa | 0 mm | - | 0 W/m² | - |
* Rain latest hour (hover to see other rain measurements)
** Current wind speed in m/s (hover to see current wind gust speed)